Weather observations for the past three days for
Fairbanks, Fairbanks International Airport
Imperial (Metric)
Date Time (akdt) Wind (mph) Vis. (mi.) Weather Sky Cond. Temperature (ºF) Relative Humidity Wind Chill (°F) Heat Index (°F) Pressure Precipitation (in)
Air Dwpt 6 hour altimeter (in) sea level (mb) 1 hr 3 hr 6 hr
Max. Min.
13 03:53 Calm 10.00 Mostly Cloudy FEW090 BKN130 BKN160 60.1 45 70 59 58% 29.64 1004.0
13 02:53 W 6 10.00 Mostly Cloudy FEW090 SCT110 BKN130 60.1 51.1 72% 29.63 1003.5
13 01:53 Calm 10.00 Mostly Cloudy FEW090 BKN150 BKN200 60.1 46.9 62% 29.64 1003.8
13 00:53 Calm 10.00 Mostly Cloudy FEW090 BKN150 BKN200 64 44.1 48% 29.63 1003.6
12 23:53 Calm 10.00 Mostly Cloudy FEW090 BKN150 BKN200 64.9 46.9 52% 29.62 1003.3
12 22:53 Calm 10.00 Mostly Cloudy FEW090 BKN150 BKN200 69.1 46.9 45% 29.6 1002.7
12 21:53 W 3 10.00 Mostly Cloudy FEW070 SCT090 BKN150 BKN200 69.1 53.1 78.1 69.1 57% 29.6 1002.6
12 20:53 SW 5 10.00 Mostly Cloudy FEW070 SCT090 BKN150 BKN200 71.1 48.9 46% 29.61 1002.9
12 19:53 SW 10 10.00 Mostly Cloudy FEW075 BKN090 BKN200 75 43 32% 77 29.62 1003.2
12 18:53 SW 8 G 17 10.00 Mostly Cloudy FEW075 BKN090 BKN200 75.9 43 31% 77 29.63 1003.7
12 17:53 SE 6 10.00 Mostly Cloudy FEW075 BKN100 BKN180 75.9 43 31% 77 29.64 1004.0
12 16:53 E 12 G 17 10.00 Mostly Cloudy FEW075 SCT110 BKN180 78.1 44.1 30% 78 29.67 1004.9
12 15:53 SE 10 10.00 Mostly Cloudy FEW075 SCT110 BKN180 75 43 78.1 66 32% 77 29.69 1005.7
12 14:53 E 10 G 16 10.00 Partly Cloudy FEW075 SCT110 SCT200 77 43 30% 78 29.71 1006.4
12 13:53 SE 6 10.00 Partly Cloudy FEW065 FEW110 SCT200 75 43 32% 77 29.74 1007.2
12 12:53 SE 8 10.00 Partly Cloudy FEW065 FEW110 SCT200 73 45 37% 29.77 1008.4
12 11:53 E 10 10.00 Partly Cloudy FEW065 FEW110 SCT200 71.1 48.9 46% 29.79 1009.1
12 10:53 SE 6 10.00 A Few Clouds FEW080 FEW200 69.1 50 51% 29.81 1009.8
12 09:53 E 5 10.00 A Few Clouds FEW100 FEW200 66 50 66 54 56% 29.83 1010.6
12 08:53 E 3 10.00 A Few Clouds FEW100 FEW200 63 51.1 65% 29.86 1011.5
12 07:53 NE 7 10.00 A Few Clouds FEW100 FEW200 60.1 51.1 72% 29.87 1011.9
12 06:53 NE 5 10.00 A Few Clouds FEW110 FEW200 57 52 83% 29.89 1012.3
12 05:53 NE 6 10.00 Mostly Cloudy SCT110 BKN200 55.9 51.1 84% 29.89 1012.7
12 04:53 Calm 10.00 Mostly Cloudy BKN110 BKN200 55 51.1 87% 29.9 1012.8
12 03:53 N 3 10.00 Mostly Cloudy BKN100 BKN120 55 52 69.1 55 90% 29.9 1012.8
12 02:53 Calm 10.00 Mostly Cloudy BKN100 BKN120 57 53.1 87% 29.89 1012.7
12 01:53 Calm 10.00 Mostly Cloudy SCT100 BKN120 60.1 54 80% 29.89 1012.5
12 00:53 Calm 10.00 Mostly Cloudy SCT100 BKN120 62.1 55 78% 29.89 1012.4
11 23:53 Calm 10.00 Mostly Cloudy FEW070 BKN120 BKN200 64 55 73% 29.88 1012.1
11 22:53 S 6 10.00 Mostly Cloudy FEW060 BKN110 BKN200 66.9 52 59% 29.88 1012.0
11 21:53 E 5 10.00 Mostly Cloudy FEW060 BKN110 BKN200 69.1 52 71.1 66.9 55% 29.86 1011.6
11 20:53 E 6 10.00 Mostly Cloudy FEW065 SCT100 BKN200 69.1 52 55% 29.86 1011.4
11 19:53 SE 5 10.00 Mostly Cloudy BKN050 BKN070 BKN140 70 50 49% 29.86 1011.4
11 18:53 SE 7 10.00 Mostly Cloudy BKN050 BKN070 BKN140 70 48 46% 29.85 1011.2
11 17:53 SE 6 10.00 Mostly Cloudy BKN050 BKN075 BKN140 68 51.1 55% 29.86 1011.4
11 16:53 Vrbl 3 10.00 Mostly Cloudy SCT040 BKN050 BKN140 69.1 52 55% 29.86 1011.5
11 15:53 SW 3 10.00 Mostly Cloudy FEW035 SCT065 BKN140 66.9 52 69.1 55.9 59% 29.87 1011.7 0.09
11 14:53 W 3 10.00 Mostly Cloudy FEW026 SCT075 BKN090 66 54 65% 29.88 1012.0
11 13:53 Vrbl 3 10.00 Mostly Cloudy SCT017 BKN065 BKN090 63 54 73% 29.87 1011.9
11 12:53 SW 7 10.00 Overcast SCT017 BKN060 OVC080 60.1 54 80% 29.87 1011.9 0.09
11 11:53 S 6 7.00 Light Rain FEW014 BKN060 OVC085 57.9 54 87% 29.86 1011.6 0.01
11 10:53 S 8 7.00 Light Rain FEW012 BKN060 OVC080 55.9 53.1 90% 29.85 1011.2 0.08
11 09:53 S 7 6.00 Light Rain Fog/Mist FEW014 BKN045 OVC065 55.9 53.1 60.1 55.9 90% 29.85 1011.0 0.12 0.56
11 08:53 SW 9 5.00 Light Rain Fog/Mist SCT008 BKN024 OVC045 57.9 54 87% 29.83 1010.3 0.19
11 07:53 SW 5 2.00 Light Rain Fog/Mist SCT008 BKN016 OVC028 57.9 55.9 93% 29.8 1009.5 0.11
11 06:53 Calm 4.00 Light Rain Fog/Mist BKN018 BKN035 OVC060 59 55.9 90% 29.79 1009.1 0.07 0.14
11 05:53 Calm 5.00 Light Rain Fog/Mist BKN060 OVC075 59 55.9 90% 29.78 1008.7 0.05
11 04:53 NW 3 10.00 Light Rain BKN045 BKN060 OVC080 60.1 57 90% 29.77 1008.4 0.02
11 03:53 NE 3 10.00 Light Rain BKN055 OVC090 60.1 55.9 71.1 60.1 86% 29.76 1008.1 0.02 0.08
11 02:53 NE 6 10.00 Light Rain BKN055 OVC080 60.1 57 90% 29.75 1007.8 0.05
11 01:53 N 3 10.00 Light Rain BKN080 OVC100 61 55.9 84% 29.74 1007.3 0.01
11 00:53 E 7 10.00 Light Rain BKN070 OVC085 62.1 55 78% 29.74 1007.2
10 23:53 E 8 10.00 Overcast BKN070 OVC095 66.9 52 59% 29.71 1006.4
10 22:53 E 6 10.00 Overcast SCT070 BKN110 OVC140 70 53.1 55% 29.67 1005.1
10 21:53 E 3 10.00 Mostly Cloudy SCT070 BKN120 BKN160 BKN200 71.1 52 77 71.1 51% 29.66 1004.7
10 20:53 E 5 10.00 Mostly Cloudy SCT070 BKN130 BKN160 BKN200 73 51.1 46% 29.65 1004.4
10 19:53 E 7 10.00 Mostly Cloudy SCT070 BKN120 BKN160 BKN200 73.9 48 40% 29.64 1004.0
10 18:53 SE 7 10.00 Mostly Cloudy SCT070 BKN150 BKN200 77 46 33% 78 29.64 1003.9
10 17:53 E 6 10.00 Mostly Cloudy FEW070 SCT140 BKN200 77 48 36% 78 29.63 1003.8
10 16:53 Vrbl 5 10.00 Mostly Cloudy FEW070 SCT150 BKN200 75.9 48.9 39% 78 29.64 1004.1
10 15:53 Vrbl 5 10.00 Mostly Cloudy FEW070 SCT110 BKN170 75 46 75.9 66 36% 77 29.64 1004.1
10 14:53 E 3 10.00 Mostly Cloudy FEW070 SCT100 BKN220 73.9 46 37% 29.65 1004.3
10 13:53 E 7 10.00 Mostly Cloudy FEW065 SCT100 BKN220 73.9 46 37% 29.66 1004.5
10 12:53 E 10 10.00 Mostly Cloudy FEW055 SCT100 BKN220 73 50 44% 29.65 1004.4
10 11:53 E 7 10.00 Mostly Cloudy FEW050 FEW100 BKN220 71.1 48.9 46% 29.66 1004.6
10 10:53 NE 6 10.00 Mostly Cloudy FEW100 BKN230 66.9 50 55% 29.67 1004.8
10 09:53 N 3 10.00 Partly Cloudy FEW100 SCT230 66 51.1 66 51.1 59% 29.67 1005.1
10 08:53 N 5 10.00 Partly Cloudy FEW100 SCT200 62.1 51.1 67% 29.67 1005.2
10 07:53 NE 5 10.00 Partly Cloudy FEW100 SCT200 59 50 72% 29.68 1005.5
10 06:53 NE 6 10.00 Mostly Cloudy SCT090 BKN200 55.9 50 81% 29.68 1005.4
10 05:53 NE 6 10.00 Mostly Cloudy SCT070 BKN200 54 48.9 83% 29.68 1005.5
10 04:53 N 5 10.00 Mostly Cloudy FEW070 SCT130 BKN200 51.1 46.9 86% 29.68 1005.4
Date Time (akdt) Wind (mph) Vis. (mi.) Weather Sky Cond. Air Dwpt Max. Min. Relative Humidity Wind Chill (°F) Heat Index (°F) altimeter (in) sea level (mb) 1 hr 3 hr 6 hr
6 hour
Temperature (ºF) Pressure Precipitation (in)